TimeMST,TemperatureF,Dew PointF,Humidity,Sea Level PressureIn,VisibilityMPH,Wind Direction,Wind SpeedMPH,Gust SpeedMPH,PrecipitationIn,Events,Conditions,WindDirDegrees,DateUTC
12:53 AM,21.0,12.9,71,30.27,10.0,NNW,8.1,-,N/A,,Clear,330,2012-02-10 07:53:00
1:53 AM,18.0,12.0,78,30.28,10.0,WNW,5.8,-,N/A,,Clear,300,2012-02-10 08:53:00
2:53 AM,18.0,10.9,74,30.27,10.0,NW,9.2,-,N/A,,Clear,320,2012-02-10 09:53:00
3:53 AM,18.0,10.9,74,30.27,10.0,NNW,9.2,-,N/A,,Clear,340,2012-02-10 10:53:00
4:53 AM,14.0,9.0,80,30.30,10.0,NNW,6.9,-,N/A,,Clear,330,2012-02-10 11:53:00
5:53 AM,12.0,8.1,84,30.33,10.0,North,4.6,-,N/A,,Partly Cloudy,350,2012-02-10 12:53:00
6:53 AM,15.1,10.0,80,30.35,10.0,NNW,5.8,-,N/A,,Overcast,340,2012-02-10 13:53:00
7:53 AM,17.1,12.0,81,30.36,10.0,North,9.2,-,N/A,,Overcast,360,2012-02-10 14:53:00
8:53 AM,19.0,12.9,77,30.38,10.0,North,10.4,-,N/A,,Overcast,10,2012-02-10 15:53:00
9:53 AM,19.9,15.1,81,30.42,4.0,North,9.2,-,N/A,,Haze,10,2012-02-10 16:53:00
10:03 AM,19.4,15.8,86,30.30,1.8,North,8.1,-,0.00,Snow,Light Snow,10,2012-02-10 17:03:00
10:53 AM,21.0,16.0,81,30.44,1.2,North,6.9,-,0.00,Snow,Light Snow,10,2012-02-10 17:53:00
11:04 AM,21.2,15.8,80,30.31,1.2,North,6.9,-,0.00,Snow,Light Snow,10,2012-02-10 18:04:00
11:40 AM,21.2,15.8,80,30.31,2.0,North,9.2,-,0.00,Snow,Light Snow,350,2012-02-10 18:40:00
11:53 AM,21.0,16.0,81,30.43,1.8,NNW,9.2,-,0.00,Snow,Light Snow,340,2012-02-10 18:53:00
12:02 PM,21.2,17.6,86,30.30,2.0,North,8.1,-,0.00,Snow,Light Snow,350,2012-02-10 19:02:00
12:42 PM,21.2,17.6,86,30.29,3.0,NNW,6.9,-,0.00,,Haze,340,2012-02-10 19:42:00
12:53 PM,21.9,17.1,82,30.42,3.0,NNW,8.1,-,0.00,Snow,Light Snow,330,2012-02-10 19:53:00
1:00 PM,21.2,17.6,86,30.29,2.5,NNW,8.1,-,0.00,Snow,Light Snow,340,2012-02-10 20:00:00
1:11 PM,21.2,17.6,86,30.28,2.0,North,9.2,-,0.00,Snow,Light Snow,350,2012-02-10 20:11:00
1:18 PM,23.0,17.6,80,30.29,1.8,North,9.2,-,0.00,Snow,Light Snow,10,2012-02-10 20:18:00
1:25 PM,21.2,17.6,86,30.29,1.5,NE,10.4,-,0.00,Snow,Light Snow,50,2012-02-10 20:25:00
1:41 PM,21.2,17.6,86,30.29,2.5,NE,11.5,-,0.00,Snow,Light Snow,50,2012-02-10 20:41:00
1:49 PM,21.2,17.6,86,30.28,3.0,NE,11.5,-,0.00,Snow,Light Snow,50,2012-02-10 20:49:00
1:53 PM,21.9,17.1,82,30.42,4.0,NE,10.4,-,0.00,,Haze,40,2012-02-10 20:53:00
2:09 PM,21.2,15.8,80,30.29,6.0,NE,9.2,-,N/A,,Haze,50,2012-02-10 21:09:00
2:53 PM,21.0,15.1,78,30.44,9.0,NE,9.2,-,N/A,,Mostly Cloudy,40,2012-02-10 21:53:00
3:20 PM,21.2,15.8,80,30.32,10.0,NNE,9.2,-,N/A,,Overcast,20,2012-02-10 22:20:00
3:53 PM,19.9,14.0,78,30.46,2.5,NNE,12.7,-,0.00,Snow,Light Snow,30,2012-02-10 22:53:00
4:01 PM,19.4,15.8,86,30.32,1.8,NE,11.5,-,0.00,Snow,Light Snow,40,2012-02-10 23:01:00
4:07 PM,19.4,15.8,86,30.31,3.0,NE,13.8,-,0.00,Snow,Light Snow,50,2012-02-10 23:07:00
4:53 PM,19.0,10.9,71,30.49,10.0,NNE,13.8,-,0.00,,Overcast,30,2012-02-10 23:53:00
5:53 PM,17.1,9.0,71,30.53,10.0,NE,11.5,-,N/A,,Overcast,40,2012-02-11 00:53:00
6:32 PM,15.8,8.6,73,30.38,10.0,NE,8.1,-,N/A,,Overcast,40,2012-02-11 01:32:00
6:53 PM,17.1,8.1,68,30.55,10.0,NE,13.8,-,N/A,,Overcast,40,2012-02-11 01:53:00
7:53 PM,16.0,7.0,68,30.56,10.0,NE,15.0,-,N/A,,Overcast,40,2012-02-11 02:53:00
8:53 PM,15.1,5.0,64,30.58,10.0,NE,13.8,-,N/A,,Overcast,40,2012-02-11 03:53:00
9:53 PM,12.9,3.9,67,30.59,10.0,ENE,17.3,-,N/A,,Overcast,70,2012-02-11 04:53:00
10:53 PM,10.9,1.9,67,30.62,10.0,NE,13.8,-,N/A,,Overcast,50,2012-02-11 05:53:00
11:53 PM,10.0,-0.0,64,30.64,10.0,ENE,10.4,-,N/A,,Overcast,60,2012-02-11 06:53:00